Theta_e
325 326 326 327 329 328 330 329 327 329 335 338 338 340 342 340 344 350 349 351 358 359 355 353 353 352 349 350 351 351 353 353 352 353 353 353 352 351 350 348 347 346 344 345 347 347 347 347 348 348 348 349 350 351 351 347 346 346 345 344 341 340 340
325 326 326 327 328 329 329 326 328 332 334 334 337 340 341 338 339 347 347 346 352 354 355 358 357 354 351 351 351 351 353 353 352 353 353 353 353 351 351 349 347 346 345 345 347 347 347 347 348 348 349 349 349 351 351 347 346 345 345 345 342 341 340
326 327 326 326 326 328 330 327 330 335 331 333 335 334 337 337 337 345 345 343 347 349 351 354 352 353 354 354 353 352 353 353 352 352 352 353 354 353 352 350 348 346 345 346 347 347 348 347 348 348 349 350 349 351 351 348 345 343 343 345 344 342 342
326 326 325 323 323 326 328 327 329 333 332 334 337 333 336 339 339 344 345 344 347 348 350 350 350 354 356 355 356 353 353 354 353 353 353 353 354 354 352 351 350 348 347 348 347 348 348 348 348 349 348 350 349 350 351 350 347 344 343 346 346 345 344
324 324 323 324 324 324 326 325 324 327 329 333 337 334 333 340 342 343 346 347 348 348 352 352 350 355 355 353 354 354 352 354 354 354 353 354 355 354 352 351 352 350 348 349 349 348 349 348 348 349 349 350 350 351 352 351 349 347 346 346 347 347 347
321 322 324 325 326 325 326 325 324 326 328 329 332 332 329 335 342 342 344 347 349 351 356 356 352 354 353 351 352 352 350 352 355 356 354 354 354 353 351 350 351 351 349 349 349 348 349 349 348 349 350 351 351 352 352 352 351 350 350 350 348 348 348
323 325 327 326 327 326 326 327 327 328 328 328 329 330 330 330 336 341 342 344 349 354 356 355 352 351 350 350 350 349 349 350 353 355 353 353 353 353 352 351 351 351 350 350 349 348 349 350 348 349 351 352 352 352 352 353 353 353 353 352 351 349 348
328 326 326 327 327 326 324 326 328 327 327 330 330 332 334 333 335 337 339 342 350 354 354 352 349 347 348 349 349 349 349 349 351 352 353 353 354 353 353 353 351 350 350 350 350 350 350 350 349 349 351 351 352 352 353 353 354 353 353 353 352 350 348
329 330 332 331 328 326 324 325 326 326 326 328 329 332 334 334 333 329 330 338 347 351 353 351 349 352 351 349 349 349 349 349 350 351 353 354 355 354 354 353 351 350 349 349 350 350 350 349 349 350 351 351 351 352 352 352 352 352 351 351 351 350 348
327 331 335 333 329 328 326 326 325 325 326 325 325 326 326 329 333 332 335 343 349 350 351 351 352 356 356 351 349 348 349 349 351 352 351 352 354 354 353 352 351 351 350 348 350 350 349 349 349 350 351 351 351 352 352 351 350 350 350 350 349 348 348
329 330 333 333 329 327 325 325 325 323 324 325 325 324 323 329 338 340 345 351 351 350 351 352 353 355 356 354 350 347 348 349 351 352 350 351 352 352 352 351 350 350 349 349 350 350 350 350 350 351 351 351 351 352 352 352 351 350 350 349 349 348 348
329 328 329 328 328 326 323 324 329 330 329 328 324 322 325 337 344 343 348 352 350 351 353 353 353 352 353 351 348 346 347 349 350 350 349 350 351 351 351 351 350 350 348 349 350 351 350 350 350 351 351 350 351 351 352 353 353 352 351 350 349 349 349
326 326 327 327 327 327 325 329 334 337 338 337 333 330 334 340 343 344 350 352 349 352 352 352 352 350 349 349 347 346 346 347 349 349 348 349 350 348 349 351 351 351 350 351 351 350 351 351 350 350 350 351 352 352 352 354 354 353 352 351 350 350 350
325 325 327 327 328 329 331 336 339 339 340 342 342 343 345 344 343 346 351 352 351 351 350 351 352 350 350 349 347 346 346 347 348 349 348 348 348 348 348 349 351 352 351 351 351 351 351 351 351 350 350 353 354 355 355 355 354 354 355 354 354 353 353
326 326 326 327 330 332 333 335 339 339 340 343 344 345 347 351 351 351 351 352 354 353 350 350 351 351 350 347 344 346 347 346 348 348 348 347 348 349 348 348 349 351 351 351 351 352 353 353 354 354 353 355 356 357 357 355 353 355 356 356 355 354 353
328 325 327 329 329 332 332 333 338 340 341 343 344 344 345 347 349 351 352 353 355 355 351 349 350 351 349 346 344 345 346 347 348 348 347 348 348 349 348 348 349 350 350 350 350 350 350 351 352 353 354 355 356 356 356 354 354 355 355 355 355 352 350
328 327 328 329 331 336 335 334 337 340 342 342 342 343 343 342 344 348 351 350 350 350 349 349 349 349 348 348 346 344 345 346 346 347 347 348 348 348 348 348 349 350 350 349 349 349 348 349 349 348 349 351 352 354 354 354 353 353 353 354 354 352 351
328 329 330 331 337 340 337 334 335 338 341 342 342 342 342 341 342 344 346 347 346 347 347 348 347 346 347 347 345 344 345 344 344 346 346 347 347 347 347 348 349 349 349 348 349 349 349 349 348 347 347 347 348 350 350 350 350 350 348 348 349 349 349
329 332 333 334 337 337 334 333 335 335 338 340 341 340 339 340 339 340 343 344 343 343 344 344 344 343 343 344 343 343 342 342 344 346 346 346 347 347 347 347 347 348 348 347 348 349 349 349 349 348 348 348 348 349 348 349 348 348 347 347 347 347 347
333 336 335 334 336 336 332 334 334 333 336 339 340 340 340 339 339 339 341 341 342 342 341 342 342 342 341 342 342 342 342 342 344 347 346 345 345 345 346 346 346 347 348 348 348 348 348 348 348 348 348 348 349 349 349 350 350 349 350 349 349 349 348
336 339 337 334 335 336 336 337 335 331 334 338 339 341 340 339 339 340 340 340 340 340 340 340 340 340 339 339 340 342 344 344 345 345 345 344 344 344 344 344 344 345 346 347 346 346 346 346 347 347 347 347 348 348 348 348 349 348 348 348 348 349 349
335 340 340 336 335 337 339 339 334 330 332 333 333 338 340 339 339 340 339 340 340 338 338 338 337 339 341 339 338 339 341 342 343 343 342 342 341 340 341 342 343 343 344 345 344 344 344 344 344 345 345 345 346 346 346 346 346 346 346 346 346 347 347
333 336 339 337 335 337 340 338 333 330 331 329 328 336 339 339 339 340 340 339 339 338 338 336 336 342 345 340 337 338 340 340 340 341 341 340 339 338 340 341 342 342 342 342 341 341 341 341 341 342 342 342 343 343 342 343 343 343 343 344 344 344 344
332 332 335 336 334 336 339 338 334 331 329 329 333 338 339 337 338 341 341 339 337 337 337 336 337 343 343 339 337 338 338 337 338 339 339 338 337 338 338 338 338 337 336 334 332 332 333 333 334 335 336 337 338 338 339 339 339 340 340 340 341 341 341
334 333 333 334 333 335 336 333 331 330 330 332 337 339 338 336 337 340 341 340 339 337 337 337 338 339 338 336 336 337 337 336 336 337 338 336 335 335 336 335 334 332 331 329 328 328 328 327 326 326 327 330 332 333 335 336 336 336 336 337 337 338 338
334 334 333 333 333 333 331 329 328 331 335 336 336 336 335 334 337 338 339 340 341 340 338 338 337 336 336 335 337 338 338 337 336 336 336 334 333 333 332 331 329 327 326 325 325 326 326 324 321 318 318 321 323 326 328 330 331 331 330 330 330 330 331
334 333 331 333 334 333 330 332 334 334 336 336 334 333 333 334 335 337 338 339 340 339 338 337 336 336 336 336 337 337 337 337 336 335 334 333 332 332 331 328 327 326 326 326 326 325 324 322 321 319 316 316 317 318 319 320 321 321 320 320 320 321 322
335 334 332 333 334 332 330 333 335 334 333 333 332 333 333 333 334 336 337 338 338 338 337 336 336 335 335 334 334 335 336 337 336 335 334 332 331 331 330 329 328 327 327 327 325 322 319 317 317 316 314 313 312 312 312 312 312 313 313 313 315 316 316
334 335 335 332 329 329 329 330 331 330 330 331 332 333 333 333 333 335 336 337 337 337 336 336 335 335 335 334 333 334 336 336 335 335 334 333 331 330 330 329 328 327 327 325 319 314 312 311 311 311 309 309 309 309 309 309 310 311 310 310 312 312 313
332 332 332 329 327 328 327 327 328 329 329 330 331 332 333 333 332 333 334 335 336 336 336 336 335 335 334 334 333 333 334 335 335 335 334 333 331 330 330 329 328 328 327 322 314 310 311 310 310 310 309 308 308 307 307 307 307 308 307 307 307 308 311
332 332 330 328 328 327 325 326 327 327 327 328 329 330 331 331 331 332 333 334 334 335 335 335 335 334 334 334 333 333 333 334 334 334 334 332 331 330 330 329 328 328 327 321 317 318 315 310 309 309 308 308 307 307 306 306 306 307 309 310 311 310 310
332 332 329 326 326 325 325 325 326 326 327 327 327 328 328 329 330 330 331 332 333 334 335 335 334 334 333 333 333 333 333 333 334 334 333 332 331 330 330 328 327 328 326 322 321 323 318 310 308 308 307 308 308 306 306 306 306 308 313 317 319 318 314
331 330 328 327 327 327 326 325 325 326 327 326 326 327 327 327 327 328 329 330 331 332 333 334 334 334 334 332 332 332 332 332 332 333 332 332 331 330 329 328 327 327 326 321 319 321 317 310 308 307 308 309 308 307 306 306 306 310 317 321 324 322 318
331 330 328 328 330 330 327 325 325 325 325 326 325 326 326 327 327 327 327 327 329 331 332 333 333 334 334 333 332 332 332 332 332 332 332 332 330 329 328 327 326 327 326 321 317 318 317 314 312 310 309 310 309 308 308 308 308 311 316 320 323 322 320
331 329 327 327 329 328 326 325 326 326 326 326 325 325 326 326 326 326 326 326 327 329 331 332 332 333 333 333 333 332 332 332 332 332 332 332 331 329 328 327 327 327 325 320 316 317 318 317 316 314 314 314 314 312 311 312 311 311 314 318 321 321 321
328 328 328 327 326 326 326 326 326 326 326 325 325 325 326 326 325 326 326 326 326 326 327 329 330 331 330 331 332 332 332 332 332 332 332 332 332 331 329 328 328 327 325 321 318 317 317 317 317 317 317 318 318 315 313 313 313 312 314 319 322 322 320
327 328 328 326 325 325 326 325 325 326 327 325 325 325 324 324 325 325 325 326 326 326 326 326 327 329 330 330 330 331 331 331 331 332 332 332 332 331 330 330 329 329 327 325 322 319 317 317 317 318 318 319 318 317 316 315 313 313 314 317 320 321 319
Wind_Speed
10 10 9 8 7 3 1 4 4 4 5 7 4 2 3 2 1 1 1 2 1 1 5 5 4 5 2 8 16 20 24 28 30 30 30 29 28 27 29 31 31 32 32 30 30 32 31 29 29 29 30 28 26 24 23 24 25 24 21 20 20 19 18
10 11 10 9 5 6 3 4 5 4 3 5 3 3 2 2 1 0 2 2 1 1 3 3 3 4 3 2 7 16 22 26 28 30 31 31 30 28 30 33 32 32 32 31 31 31 32 31 29 28 29 28 27 24 22 23 25 25 22 20 20 20 19
9 9 5 7 7 5 5 3 2 4 3 2 2 2 3 3 1 0 3 3 2 2 3 3 4 6 5 3 4 9 16 21 25 28 31 32 30 27 29 32 32 31 32 32 32 32 32 31 29 29 27 26 26 25 22 23 24 23 22 20 19 19 19
6 6 2 2 5 8 7 3 1 3 4 3 2 1 2 3 2 2 1 3 2 3 3 4 7 7 6 5 4 3 11 20 23 25 29 32 30 26 27 28 26 29 31 29 30 33 32 30 29 29 27 25 25 25 22 21 23 23 22 21 19 19 19
1 5 3 4 5 4 4 2 2 2 3 3 3 1 2 4 3 3 2 1 4 4 3 5 7 6 5 6 4 2 6 16 22 25 28 29 23 18 24 27 23 26 29 26 27 31 30 30 29 28 28 27 25 25 22 20 22 23 23 22 20 19 19
3 1 2 4 5 5 5 3 3 3 3 4 3 1 3 3 4 4 3 2 4 3 1 2 4 5 5 6 6 3 5 9 19 25 24 22 18 16 24 30 27 26 26 25 27 30 28 29 30 28 29 28 25 25 22 19 21 23 23 22 21 19 18
6 9 10 9 8 7 6 5 4 4 3 5 4 3 5 4 4 4 2 1 2 1 0 2 4 4 4 4 3 5 6 6 10 16 21 24 27 28 26 27 29 29 25 23 27 29 27 28 29 28 29 28 25 23 21 19 20 22 22 21 20 18 17
6 9 9 9 9 7 3 3 5 5 4 4 5 4 3 3 4 4 3 2 3 2 2 5 7 6 5 4 4 2 3 9 7 7 20 27 29 28 25 25 29 33 29 25 28 29 28 28 28 29 30 29 26 23 21 22 22 21 21 22 21 19 16
5 7 6 6 4 3 4 3 5 8 9 8 6 4 2 2 5 7 6 2 2 2 2 3 6 5 4 7 7 6 7 13 9 7 16 22 24 24 24 26 28 31 31 29 29 30 31 31 30 30 30 28 27 27 24 24 24 22 23 23 23 21 18
2 2 2 3 3 3 6 7 7 8 11 10 6 3 2 1 4 5 4 3 3 4 3 3 3 2 4 6 8 10 12 15 12 12 11 13 21 24 24 26 28 30 31 30 29 30 32 32 30 30 30 28 28 29 26 25 26 25 25 23 22 21 20
3 3 4 6 6 5 7 11 12 11 12 12 7 1 1 3 2 2 1 8 9 6 4 5 4 4 5 5 7 10 14 16 15 16 12 9 15 22 24 25 28 32 32 28 27 29 30 30 29 28 29 29 29 28 26 25 26 27 26 24 22 21 21
5 6 7 10 10 7 9 11 11 11 10 8 7 4 4 5 7 4 2 11 11 5 5 6 5 4 6 7 8 10 11 15 15 13 11 7 8 16 21 23 26 31 31 28 28 30 29 28 28 27 28 28 28 28 27 25 25 27 28 27 25 24 22
8 9 8 9 9 9 9 8 12 15 16 14 7 4 3 3 8 8 9 13 11 8 7 5 3 7 10 11 12 11 11 15 15 13 13 9 6 10 14 15 17 22 25 25 27 30 28 28 28 27 27 26 25 26 26 24 23 22 24 26 26 25 24
9 10 9 8 7 9 10 13 17 15 16 18 17 14 11 7 9 11 11 12 8 4 4 6 9 15 18 17 17 14 11 12 14 15 15 13 10 8 10 13 16 18 20 19 21 24 25 25 26 25 26 26 25 25 24 22 20 19 21 24 25 25 24
8 9 9 6 6 10 14 16 17 16 16 17 17 15 12 9 10 12 12 11 6 4 6 10 13 19 20 18 17 16 12 10 14 15 13 15 16 14 14 16 18 20 21 19 17 17 17 17 18 21 24 25 24 24 22 20 20 20 21 22 22 23 22
6 9 7 7 7 10 14 15 16 15 14 13 12 12 11 8 7 8 9 7 4 5 8 11 12 16 17 14 12 14 14 14 16 16 12 14 18 18 18 20 19 19 20 19 17 15 13 14 16 17 19 20 20 20 20 18 18 19 20 21 21 20 19
5 8 8 10 8 6 8 9 10 11 11 11 12 12 14 12 7 3 4 3 2 4 7 10 12 14 14 12 10 12 16 19 19 17 13 13 15 18 21 22 21 19 18 17 16 16 15 15 15 15 15 15 15 17 18 16 15 15 14 15 16 16 15
4 8 7 7 5 5 2 5 4 8 10 13 14 12 13 13 7 3 3 5 6 7 9 11 12 13 15 16 15 14 16 21 21 18 14 12 14 16 18 20 20 20 20 17 16 16 15 14 14 15 15 15 14 14 15 15 15 14 14 14 13 13 14
2 5 5 4 3 2 2 4 4 7 7 10 13 12 13 11 6 4 7 10 11 12 14 16 18 18 19 20 19 16 17 20 22 20 17 16 17 18 19 21 22 22 21 18 15 14 13 12 11 11 12 12 11 11 12 12 13 14 14 15 15 16 18
1 3 4 2 2 1 3 4 5 7 5 5 8 9 11 10 4 3 7 10 11 12 16 19 20 21 22 20 17 16 15 15 17 19 19 19 19 19 19 19 19 18 16 12 9 8 8 9 9 8 9 9 9 9 9 10 12 13 12 12 13 15 16
2 2 3 1 2 1 5 5 5 6 6 4 5 5 6 7 6 5 6 8 9 10 13 15 19 23 24 18 16 17 17 17 17 18 18 17 17 17 16 15 14 13 11 8 7 6 7 7 7 8 8 9 10 11 12 13 14 14 13 11 11 12 13
2 4 2 2 1 2 2 4 9 10 9 9 6 4 3 5 7 9 8 7 9 9 9 12 16 17 15 7 9 16 19 18 18 18 16 14 14 15 14 14 15 14 12 11 11 10 10 10 9 9 10 11 12 12 12 12 12 11 10 9 9 10 11
3 5 2 0 1 3 4 6 10 10 13 15 11 4 2 5 6 9 11 9 9 8 8 11 14 11 6 1 3 13 17 15 16 17 16 15 13 11 12 15 17 18 17 16 15 14 14 14 13 12 12 12 12 11 10 8 7 7 6 7 7 8 9
3 5 3 1 0 2 5 7 9 8 13 14 9 2 1 2 4 9 12 12 12 10 11 11 8 5 4 6 9 14 15 12 12 13 14 14 12 11 14 17 18 19 18 16 15 15 14 13 13 12 12 12 12 11 11 9 8 7 7 6 6 6 6
3 3 3 2 1 2 5 8 11 7 7 8 4 2 3 3 7 10 12 13 12 9 9 8 7 6 11 15 16 15 14 12 13 13 13 14 14 14 15 16 16 15 15 15 15 14 13 11 10 10 10 11 11 11 11 10 10 9 8 7 6 6 6
1 0 2 3 0 2 4 9 11 6 3 2 2 3 4 8 11 12 13 13 11 9 8 10 13 14 16 16 16 16 17 17 17 16 14 15 16 15 14 13 14 15 15 15 15 13 11 10 9 10 11 12 12 12 12 11 11 10 9 7 6 6 6
2 1 2 3 0 4 5 6 6 6 4 6 8 10 10 12 14 15 16 14 12 12 13 15 17 18 16 14 13 16 17 17 17 17 15 15 16 15 13 13 14 16 16 15 14 12 11 10 11 11 11 12 13 13 13 12 12 11 10 10 9 8 8
2 2 1 2 2 1 5 6 5 6 7 11 16 17 13 12 13 14 16 15 14 15 16 16 17 17 16 14 12 13 17 17 16 16 15 14 16 16 15 14 14 14 14 12 10 9 9 10 10 9 9 10 11 12 13 12 11 10 10 10 10 11 11
2 3 3 5 6 9 15 17 15 15 16 16 18 18 16 13 12 13 14 13 13 15 16 16 16 16 15 13 10 11 17 17 15 14 12 12 16 18 16 15 13 12 10 8 8 8 9 9 9 9 8 8 9 10 10 10 10 10 10 9 8 9 10
5 7 8 10 11 14 19 21 20 20 21 20 19 18 16 14 12 13 13 12 12 15 15 15 15 14 13 11 9 10 13 14 14 15 13 12 15 16 14 13 12 10 7 7 9 11 10 9 9 9 9 8 8 9 9 9 10 11 11 10 9 9 10
5 5 7 10 12 15 18 20 20 20 19 19 18 18 17 15 14 13 13 11 11 11 11 12 14 13 11 11 11 12 12 12 14 16 16 14 14 14 12 11 11 10 8 6 8 10 9 9 9 9 9 9 8 9 9 9 11 12 12 11 10 10 10
4 5 9 14 16 17 17 17 17 17 17 16 16 16 15 15 15 14 13 12 10 9 9 11 13 13 10 10 13 14 13 12 14 15 16 16 14 12 10 9 10 9 7 5 7 8 7 7 7 8 9 9 8 9 9 8 9 11 13 12 10 8 9
5 6 12 16 14 14 16 17 16 15 16 17 17 17 15 15 15 16 15 14 12 10 9 10 11 12 11 10 11 12 11 11 13 13 15 16 14 12 10 9 10 10 6 4 6 5 5 6 6 6 7 8 8 8 8 7 7 9 11 11 7 4 6
3 5 10 12 9 8 13 17 16 14 16 17 17 16 16 15 16 15 14 15 15 14 11 8 8 10 11 10 9 10 10 10 11 12 12 13 14 12 11 10 11 10 7 5 6 5 5 6 6 6 6 7 7 7 6 6 6 8 9 10 8 6 6
5 9 14 16 15 14 15 18 17 15 16 17 16 15 14 14 15 15 14 14 15 15 14 12 9 8 7 7 9 12 11 9 10 10 10 10 11 11 10 9 10 10 8 7 7 6 5 4 4 5 4 4 4 5 4 4 4 5 6 7 6 6 7
12 14 18 22 23 21 19 18 17 15 15 15 16 16 15 13 13 13 14 13 13 13 13 13 11 9 7 5 8 12 11 9 9 10 9 8 8 8 9 9 10 10 10 9 8 6 5 5 4 4 4 3 2 3 3 2 2 4 6 5 3 4 6
16 17 20 24 24 21 19 18 15 14 16 18 18 17 16 15 13 12 13 13 12 12 12 12 12 12 11 9 7 8 8 7 8 8 8 8 7 8 9 10 10 11 11 10 9 7 6 6 5 5 6 5 4 3 3 3 4 5 6 6 6 6 5
Wind_Direction
190 207 215 220 204 178 187 193 199 209 162 129 112 114 141 151 148 143 188 244 240 263 279 268 258 297 300 177 186 184 184 190 192 195 199 200 203 203 198 196 197 195 190 190 190 186 189 189 183 188 196 200 203 202 199 194 192 196 196 191 191 193 194
201 200 218 260 227 150 147 211 207 196 132 113 117 106 143 198 185 75 308 274 226 289 268 246 242 257 281 278 197 180 178 185 190 195 198 199 201 202 200 198 196 193 191 193 193 189 191 191 187 191 198 200 202 204 202 197 193 196 196 193 192 193 195
174 166 199 278 269 222 207 208 178 167 143 115 116 114 164 188 152 95 318 310 250 242 251 228 218 222 229 263 233 182 174 181 188 194 198 198 200 203 198 191 191 192 191 193 194 191 189 189 190 195 200 201 202 203 202 198 196 197 196 194 194 193 195
141 135 148 254 260 263 256 281 5 152 146 142 143 126 161 147 122 156 298 324 253 230 244 226 214 211 203 210 238 217 181 182 186 190 195 197 201 207 198 186 184 188 188 189 192 191 188 187 191 196 199 200 200 200 201 200 199 197 195 196 197 195 195
108 154 169 195 208 246 253 275 280 175 114 99 130 193 180 131 125 159 152 247 253 243 227 219 212 202 199 195 195 269 204 186 187 191 195 195 192 194 192 189 185 180 182 184 182 181 183 185 189 193 196 199 197 197 200 201 199 196 194 196 198 199 198
337 308 289 250 228 219 198 197 251 214 136 107 107 204 212 145 131 147 149 205 258 280 240 207 195 184 206 195 175 238 261 202 194 193 189 184 178 181 189 193 191 178 176 182 179 177 180 184 186 183 185 191 192 193 198 200 200 196 193 195 198 201 200
325 315 307 293 275 250 209 181 226 245 176 144 145 184 206 176 134 122 112 217 251 282 262 178 163 168 199 197 193 243 261 255 219 185 174 183 194 198 192 189 192 187 178 175 176 180 186 189 188 180 177 180 182 188 195 197 198 196 192 195 198 203 203
316 308 300 290 277 263 243 179 204 240 237 182 172 186 183 160 149 130 117 233 227 205 203 172 159 163 165 123 75 58 20 356 343 171 177 190 194 192 182 175 184 189 185 177 175 181 186 189 189 182 178 179 181 187 193 194 196 194 192 197 201 208 211
330 333 328 319 303 305 328 293 224 234 240 225 209 196 117 116 196 167 142 188 217 169 197 165 145 150 140 103 93 115 78 45 52 166 190 189 182 180 181 180 180 183 186 186 184 183 184 188 190 186 184 185 186 188 190 190 191 191 193 199 204 210 211
320 343 320 311 300 307 316 302 273 256 249 245 234 190 109 154 216 181 138 124 109 110 108 99 105 120 116 96 100 126 107 86 115 177 196 179 173 176 181 184 184 184 186 187 188 187 185 187 191 190 190 190 190 190 191 192 191 191 194 199 200 202 204
243 249 251 267 269 277 310 311 301 285 263 249 235 195 170 169 119 21 92 130 126 133 140 140 173 166 116 88 84 105 109 109 137 174 181 162 165 170 175 180 182 184 184 182 183 184 184 188 190 191 192 194 193 193 194 197 196 194 197 198 194 194 199
264 271 270 275 284 290 297 314 329 333 318 277 231 212 216 161 103 59 138 130 124 153 176 161 179 150 92 74 71 77 95 110 124 149 156 145 147 153 162 173 176 177 178 179 181 180 180 185 189 191 194 195 195 196 197 201 203 201 202 203 201 200 204
295 296 291 289 310 314 303 340 19 20 16 13 7 347 309 155 129 143 155 137 133 162 175 164 120 87 84 84 89 87 87 100 116 135 145 144 126 122 137 150 155 159 162 168 177 179 178 180 184 187 191 192 192 193 197 200 200 201 203 207 208 207 207
302 307 304 305 343 4 11 24 27 27 35 35 27 20 19 47 106 127 129 124 129 152 148 125 101 97 95 89 91 97 94 100 124 143 145 142 139 139 143 136 132 142 147 146 156 167 171 175 179 181 183 184 185 186 189 191 192 195 200 202 204 206 207
316 299 292 310 11 44 44 32 22 24 37 39 31 23 20 40 82 98 102 105 98 56 76 103 110 108 104 94 91 99 102 113 131 140 143 143 145 155 166 154 143 147 146 136 136 148 154 157 166 172 174 176 180 182 183 185 189 197 203 204 203 205 208
318 292 306 345 13 55 50 29 20 24 33 42 40 28 21 27 62 81 85 89 71 40 61 74 78 84 91 96 100 102 104 111 120 125 131 141 142 146 153 153 150 152 154 153 155 161 164 163 168 174 174 176 181 183 182 183 189 197 203 206 207 207 209
299 301 333 348 352 48 47 16 22 32 35 49 51 37 30 28 31 46 51 49 32 32 56 61 56 57 68 83 95 98 100 106 113 114 117 126 134 140 146 148 148 153 160 166 170 177 184 187 189 189 188 193 196 194 193 195 198 204 213 216 213 208 208
291 312 333 348 8 59 20 314 13 51 56 63 60 46 36 34 30 25 42 58 60 54 59 67 66 61 64 77 88 95 102 111 114 110 108 114 119 126 137 140 139 142 146 148 155 167 173 177 187 196 201 209 215 214 217 224 227 232 244 249 241 229 220
299 325 352 24 45 92 264 294 19 54 69 81 74 55 42 42 42 42 60 71 72 70 70 69 69 70 72 80 91 98 107 118 119 116 119 125 120 118 126 129 129 134 140 139 140 150 159 164 174 187 196 204 213 219 225 232 237 241 244 243 239 235 233
358 356 9 43 178 234 328 357 33 34 27 64 75 48 29 33 47 49 64 75 75 77 79 79 81 80 74 69 73 86 105 121 123 122 128 132 131 132 136 136 135 138 143 144 145 157 176 188 192 197 201 206 214 223 225 229 237 240 241 240 236 234 233
85 88 359 327 188 304 357 8 6 5 13 44 83 72 27 22 42 60 71 77 74 69 68 79 91 87 75 56 37 55 91 116 120 121 126 127 130 135 138 141 143 143 147 155 163 170 175 182 193 201 204 207 213 222 229 233 237 237 238 241 243 240 236
99 103 36 346 211 249 308 303 311 339 17 22 19 68 56 1 29 69 85 79 79 80 70 83 98 90 76 52 18 45 75 98 103 107 111 109 113 121 128 134 135 133 137 140 140 143 143 142 153 168 177 187 195 203 212 219 225 228 230 232 236 238 237
127 116 114 207 225 251 264 278 298 339 18 10 355 27 66 331 12 75 96 95 94 104 109 110 111 97 78 153 105 82 85 87 87 95 101 99 101 111 118 120 121 122 126 130 131 134 136 135 138 145 153 160 165 168 172 177 187 196 199 203 210 218 222
140 125 133 152 249 257 243 255 284 339 17 16 12 56 180 306 35 75 95 111 118 124 128 119 104 93 123 142 120 105 102 97 95 100 101 98 105 118 118 114 113 115 115 113 112 111 113 119 125 128 133 137 137 134 131 131 141 150 155 164 176 186 193
83 101 120 139 231 234 225 256 283 316 24 39 47 184 203 132 94 84 90 110 122 126 127 110 77 92 122 123 119 117 113 107 107 107 104 106 112 115 116 116 113 114 114 111 106 102 99 104 108 113 124 129 125 123 125 127 131 131 132 142 151 155 159
80 96 95 97 118 244 239 268 294 329 70 120 164 175 140 98 84 74 79 96 107 109 110 105 103 113 119 118 124 131 124 118 120 122 121 123 119 111 108 108 105 105 107 104 104 109 115 117 113 112 115 117 117 122 127 127 126 126 124 125 127 129 135
133 145 87 91 212 274 269 273 314 12 76 140 125 105 91 80 73 68 72 83 97 107 109 109 114 121 122 119 127 136 130 126 132 136 130 124 123 121 117 108 99 99 102 104 106 114 123 129 131 130 126 122 119 119 118 116 116 119 119 118 118 116 114
136 141 115 129 174 18 53 83 98 87 104 124 118 107 95 85 80 78 79 85 99 111 117 121 124 127 128 125 126 135 136 131 133 137 128 115 120 126 119 111 111 114 120 125 125 124 127 131 135 135 130 126 123 120 117 116 117 118 117 117 117 111 104
125 139 147 138 119 80 72 82 94 95 94 102 108 107 101 94 89 89 88 93 107 117 123 130 133 133 136 135 130 134 139 137 136 140 134 121 127 131 126 123 130 138 141 138 128 121 119 119 120 120 115 111 113 115 114 115 120 119 112 108 105 100 100
100 104 122 122 101 80 76 82 86 87 88 94 99 100 99 98 96 95 93 97 116 127 131 134 135 133 134 136 134 135 138 139 138 139 138 137 140 144 143 137 137 141 141 129 119 117 117 117 119 119 116 113 112 110 108 108 110 107 102 100 97 91 89
119 106 124 122 107 96 90 88 90 90 90 95 99 99 99 101 100 99 97 96 107 124 136 141 139 137 134 133 135 137 138 144 146 143 142 145 148 152 149 138 136 144 142 124 117 119 117 119 124 124 124 127 126 121 119 119 118 115 110 103 94 88 87
121 122 140 138 129 121 111 104 104 106 107 110 109 104 103 103 101 100 101 99 99 107 122 134 139 139 134 129 132 134 133 138 145 150 152 151 149 150 144 135 146 161 159 133 132 131 116 110 122 135 143 144 138 131 128 130 134 131 119 101 83 76 84
108 123 141 140 129 117 112 112 112 111 112 114 111 106 104 103 100 97 96 96 96 100 113 129 136 134 131 130 137 142 140 133 134 146 159 161 159 160 159 161 172 181 178 151 148 145 123 113 121 134 139 132 124 122 124 131 140 136 120 107 98 98 106
141 149 153 149 132 113 116 120 118 113 109 107 106 107 104 99 100 101 96 92 92 96 104 117 128 132 133 137 147 154 154 146 138 139 151 161 162 162 164 170 181 192 198 183 164 152 138 130 126 127 131 127 121 117 117 124 132 132 129 131 145 170 171
131 135 145 143 130 121 125 127 124 122 118 111 107 109 110 104 103 105 102 95 91 94 99 102 107 120 128 140 156 158 154 153 153 149 153 165 168 171 180 188 193 202 208 198 179 165 156 147 134 131 142 146 131 119 114 115 124 139 148 149 157 179 195
106 118 131 131 124 122 127 126 122 124 131 128 116 110 112 112 110 109 108 103 98 98 101 102 101 102 101 118 157 162 155 154 161 161 161 170 177 186 197 204 209 215 217 214 206 192 184 187 180 175 191 200 172 145 150 156 166 171 173 179 200 210 208
115 121 128 127 124 125 127 127 123 125 134 135 128 121 118 117 116 116 114 110 106 104 107 109 107 106 105 109 130 151 153 157 169 171 167 171 184 197 203 207 217 225 224 225 226 216 211 222 221 208 212 219 216 211 214 215 214 210 207 215 234 249 246